User: anonymous   Login
Location: Unspecified
(0.0000°N, 0.0000°E)
Time: 01:06:00
(UTC+02:00)
Language:

YAOGAN 3 - Orbit

View from above orbital plane
View from above orbital plane
View from above satellite
View from above satellite

Ground track
Ground track

The orbit data is extracted from the following two-line orbital elements,

1 32289U 07055A   16125.55297302  .00000237  00000-0  37645-4 0  9990
2 32289  97.9847 122.9109 0001427 103.4411 256.6971 14.80686639458264
Epoch (UTC): 04 May 2016 13:16:16
Eccentricity: 0.0001427
inclination: 97.9847°
perigee height: 626 km
apogee height: 628 km
right ascension of ascending node: 122.9109°
argument of perigee: 103.4411°
revolutions per day: 14.80686639
mean anomaly at epoch: 256.6971°
orbit number at epoch: 45826

The dashed part of the orbit path shows where the satellite is in the earth's shadow,  

DLR